Cloud_Cover
100 100 100 100 100 7 21 100 100 100 48 6 4 44 5 2 5 5 8 4 3 18 45 5 2 0 0 0 0 5 4 1 1 2 0 0 8 0 3 0 5 5 5
95 100 100 100 100 44 5 64 86 100 100 5 5 3 5 5 5 5 10 5 4 47 76 6 22 5 3 0 0 0 0 0 0 1 0 0 0 3 5 5 4 5 5
100 100 100 100 100 56 31 26 6 96 100 100 7 3 5 3 10 8 21 9 5 0 0 0 0 0 0 0 0 0 0 0 0 2 5 3 27 5 5 5 5 5 5
100 100 100 100 99 50 34 43 83 63 16 100 100 5 5 13 15 5 6 5 0 0 0 0 0 0 0 0 0 0 0 0 3 2 14 37 18 2 5 37 5 6 5
100 100 100 100 98 35 100 100 100 88 7 9 100 58 19 77 87 2 8 5 0 0 0 0 0 0 0 0 0 0 0 0 3 5 2 0 1 4 9 5 46 5 65
100 100 100 100 100 92 22 100 100 100 22 5 30 100 42 83 60 8 2 5 3 0 0 0 0 0 0 0 0 4 5 4 5 5 5 5 10 2 2 0 5 5 5
100 100 100 100 100 100 100 100 100 100 97 35 31 95 100 59 57 67 3 0 4 0 0 0 0 0 0 0 0 1 5 5 23 16 31 41 5 4 5 5 5 5 5
100 100 100 100 100 100 100 100 100 100 100 98 100 92 99 100 100 100 98 56 2 4 1 0 1 3 0 0 0 0 1 5 4 5 5 5 5 30 34 5 5 5 5
100 100 100 100 100 100 100 100 100 100 100 100 97 99 100 100 100 100 100 100 98 77 14 5 5 0 0 0 0 0 0 0 5 5 5 0 3 7 5 5 6 4 26
100 100 100 100 100 100 100 100 100 100 100 100 100 81 12 97 100 55 66 100 100 100 100 81 0 0 0 0 0 0 1 3 0 4 5 2 5 5 8 5 5 94 23
100 100 100 100 100 100 100 100 100 100 100 100 100 100 100 8 84 62 9 17 26 55 78 0 0 0 0 0 0 0 0 9 0 0 1 4 6 2 2 4 0 4 5
100 100 100 100 100 100 100 100 100 100 100 100 100 100 100 90 8 26 24 5 5 6 77 95 44 4 0 31 0 0 1 84 80 3 4 3 5 0 0 0 3 4 5
100 100 100 100 100 100 100 100 100 100 100 100 100 100 100 100 100 98 31 5 5 5 46 100 100 75 76 99 100 54 80 100 100 82 5 5 5 0 0 0 4 4 5
100 100 100 100 100 100 100 100 100 100 100 100 100 100 100 100 100 100 100 58 5 5 5 34 96 100 100 96 100 100 100 100 100 100 6 5 0 0 0 4 5 5 5
100 100 100 100 100 100 100 100 100 100 100 100 100 100 100 100 100 100 100 100 83 5 5 8 5 56 100 100 100 100 100 99 94 72 100 27 5 0 0 0 3 3 4
100 100 100 100 100 100 100 100 100 100 100 100 100 100 100 100 100 100 100 100 100 100 98 96 97 50 44 66 100 100 100 25 9 14 22 72 52 5 4 0 0 4 5
100 100 100 100 100 100 100 100 100 100 100 100 100 100 100 100 100 100 100 100 100 100 100 100 91 100 100 78 89 44 6 5 5 5 6 32 2 76 5 5 1 0 5
100 100 100 100 100 100 100 100 100 100 100 100 100 100 100 100 100 100 100 100 100 100 100 100 100 92 100 100 99 95 87 6 5 62 6 5 5 76 98 2 0 0 0
100 100 100 100 100 100 100 100 100 100 100 100 100 100 100 100 100 100 95 100 100 100 90 100 89 99 100 99 100 100 100 73 68 5 5 4 5 5 91 100 1 4 0
100 100 100 100 100 100 100 100 100 100 100 100 100 100 100 100 100 100 100 100 100 100 100 100 100 97 100 85 86 100 81 20 59 5 5 5 5 5 20 97 87 6 5
100 100 100 100 100 100 100 100 100 100 100 100 100 100 100 100 100 100 100 91 93 100 100 100 100 100 100 100 100 100 86 99 67 5 5 5 5 5 5 5 100 100 92
0 87 100 100 100 100 100 100 100 100 100 100 100 100 100 100 100 100 100 86 79 100 100 100 100 100 100 100 100 99 91 70 79 46 5 5 5 31 11 60 67 96 100
5 2 50 100 100 100 100 100 100 100 100 100 100 100 100 100 100 100 100 100 97 100 100 100 100 100 100 100 100 97 95 83 80 42 43 39 35 8 24 6 57 20 83
1 15 7 60 100 100 100 100 100 100 100 100 100 100 100 100 100 100 100 100 100 100 100 100 100 100 100 100 100 100 100 100 100 99 100 85 86 75 76 71 38 28 60
5 5 70 4 55 100 100 100 100 100 100 100 100 100 100 100 100 100 100 100 100 100 100 100 100 100 100 100 100 100 100 99 100 100 100 100 100 100 80 100 81 74 11
5 5 5 99 7 5 40 100 100 100 100 100 100 100 100 100 100 100 100 100 100 100 100 100 100 100 100 100 100 100 100 100 100 100 100 100 99 100 98 83 40 65 89